Regional Weather Roundup
Issued by NWS

Home | Current Version | Previous Version | Graphics & Text | Print | Product List | Glossary On
Versions: 1 2 3 4 5 6 7 8 9 10 11 12 13 14 15 16 17 18 19 20 21 22 23 24 25 26 27 28 29 30 31 32 33 34 35 36 37 38 39 40 41 42 43 44 45 46 47 48 49 50
000
ASUS43 KMPX 201001
RWRMN
WEATHER ROUNDUP FOR MINNESOTA
NATIONAL WEATHER SERVICE TWIN CITIES/CHANHASSEN MN
500 AM CDT THU JUL 20 2017


NOTE: "FAIR" INDICATES FEW OR NO CLOUDS BELOW 12,000 FEET WITH NO
SIGNIFICANT WEATHER AND/OR OBSTRUCTIONS TO VISIBILITY. N/A MEANS
CURRENT SKY AND/OR WEATHER CONDITIONS ARE NOT AVAILABLE.

MNZ060>063-068>070-201100-
   Twin Cities Metro

CITY           SKY/WX    TMP DP  RH WIND       PRES   REMARKS
TWIN CITIES    PTCLDY    69  67  93 N3        29.94S
ST PAUL        FOG       67  67 100 CALM      29.94S VSB 1
CRYSTAL        FOG       65  62  90 NW5       29.94R VSB 3/4
BLAINE         FOG       64  64 100 CALM      29.95S VSB<1/4
LAKEVILLE      CLOUDY    66  66 100 CALM      29.95R FOG
EDEN PRAIRIE   CLEAR     68  66  93 N5        29.93S FOG
SOUTH ST PAUL  MOCLDY    68  67  98 CALM      29.94S FOG
LAKE ELMO      FOG       66  66 100 CALM      29.97R VSB 1/4
$$
MNZ001>005-007-008-013>017-022>024-027-028-201100-
   Northwest Minnesota

CITY           SKY/WX    TMP DP  RH WIND       PRES   REMARKS
BEMIDJI        CLEAR     61  60  99 NW6       29.96S
HALLOCK        CLEAR     55  55 100 N3        29.96R
ROSEAU         CLEAR     61  55  82 NW3       29.95R HAZE
WARROAD        CLEAR     61  55  82 NW6       29.95R
CROOKSTON      FOG       57  57 100 W3        29.98R VSB 1/2
FOSSTON        FOG       55  54  94 CALM      29.98R VSB 1/4
DETROIT LAKES  CLEAR     63  63 100 CALM      29.98S FOG
MOORHEAD       FOG       57  57 100 CALM      29.97S VSB 1/2
PARK RAPIDS    CLEAR     60  58  92 SW6       29.97R FOG
MAHNOMEN       FOG       58  58  99 CALM      29.97S VSB 1/4
$$
MNZ006-009>011-018-025>026-201100-
   North Central Minnesota

CITY           SKY/WX    TMP DP  RH WIND       PRES   REMARKS
BAUDETTE       CLEAR     61  61 100 W6        29.92R
FLAG ISLAND    CLEAR     64  61  88 NW9       29.92R
INTL FALLS     FOG       53  52  96 CALM      29.91R VSB 1/4
WASKISH        CLEAR     66  64  94 NW6       29.94R
BIG FORK       FOG       59  57  94 CALM      29.95R VSB 1/4
LONGVILLE      CLEAR     55  55 100 CALM      29.96R FOG
GRAND RAPIDS   CLEAR     65  63  93 W6        29.96R
CRANE LAKE     CLEAR     52  52 100 CALM      29.92R
ORR            MOCLDY    61  57  88 CALM      29.91R
COOK           CLEAR     59  57  94 CALM      29.94R
WALKER         FOG       59  59  98 W5        29.96R VSB 1/4
$$
MNZ012-019>021-037-201100-
   Northeast Minnesota

CITY           SKY/WX    TMP DP  RH WIND       PRES   REMARKS
DULUTH         PTCLDY    59  58  96 W8        29.94S
ELY            PTCLDY    57  57 100 CALM      29.92R
HIBBING        CLEAR     51  51 100 CALM      29.93S FOG
EVELETH        PTCLDY    53  50  90 CALM      29.95R FOG
DULUTH HARBOR  CLEAR     61  57  88 SW5       29.93S
TWO HARBORS    CLEAR     63  57  82 CALM      29.91S
SILVER BAY     CLEAR     52  52 100 CALM      29.91R
GRAND MARAIS     N/A     54  53  97 SW5       29.88S
G MARAIS ARPRT PTCLDY    57  48  72 SW3       29.93R
$$
MNZ029>031-032-039>041-046>048-054>057-064-201100-
   West Central Minnesota

CITY           SKY/WX    TMP DP  RH WIND       PRES   REMARKS
FERGUS FALLS   FOG       61  61 100 S6        29.98R VSB<1/4
WHEATON        CLOUDY    61  59  94 CALM      29.99R FOG
MORRIS         FOG       63  61  94 S8        29.99R VSB<1/4
ALEXANDRIA     CLEAR     61  60  97 CALM      29.99R FOG
ELBOW LAKE     FOG       61  61 100 CALM      29.98S VSB 1/4
WADENA         MOCLDY    59  59 100 CALM      29.96S VSB 1/4
GLENWOOD       CLEAR     61  59  94 SW3       30.00S FOG
APPLETON       FOG       63  61  94 CALM      29.98S VSB<1/4
BENSON         FOG       59  57  94 CALM      30.01R VSB 1/2
ORTONVILLE       N/A     64  63  94 MISG      29.99R FOG
MADISON        FOG       66  66 100 CALM      29.99S VSB 1/4
WILLMAR        FOG       63  63 100 CALM      30.00R VSB<1/4
$$
MNZ033>034-036-042>043-049>051-058-059-201100-
   Central Minnesota

CITY           SKY/WX    TMP DP  RH WIND       PRES   REMARKS
ST CLOUD       CLEAR     60  60 100 CALM      29.96R FOG
SAUK CENTRE    FAIR      57  56  99 CALM      29.99R FOG
PAYNESVILLE    FOG       60  60 100 CALM      29.99R VSB 3/4
AITKIN           N/A     54  52  94 CALM      29.94F FOG
PINE RIVER     FOG       52  52 100 CALM      30.00R VSB<1/4
BRAINERD       CLEAR     58  58 100 CALM      29.96S FOG
STAPLES        MOCLDY    55  55 100 S3        29.97R FOG
LONG PRAIRIE   FAIR      59  59 100 CALM      29.98S
LITTLE FALLS   PTCLDY    55  54  94 CALM      29.98R FOG
LITCHFIELD     MOCLDY    64  64 100 NW3       29.98R FOG
BUFFALO        PTCLDY    65  63  94 CALM      29.98R FOG
MAPLE LAKE     FOG       65  65  99 CALM      29.98S VSB 1
HUTCHINSON     FOG       65  65 100 W3        29.99R VSB 1
$$
MNZ037-044-045-052-053-201100-
   East Central Minnesota

CITY           SKY/WX    TMP DP  RH WIND       PRES   REMARKS
PRINCETON      CLEAR     61  59  94 CALM      29.96R FOG
MORA           CLEAR     59  57  94 CALM      29.97S
CAMBRIDGE      CLEAR     63  61  94 CALM      29.95R
RUSH CITY      PTCLDY    59  57  96 CALM      29.96R FOG
MOOSE LAKE       N/A     55  54  94 CALM      29.93S FOG
HINCKLEY       FAIR      59  59 100 CALM      29.95S
CLOQUET        CLEAR     57  55  94 CALM      29.95R
MCGREGOR       CLEAR     59  59 100 CALM      29.96R
$$
MNZ071>073-080-081-089-090-097-098-201100-
   Southwest Minnesota

CITY           SKY/WX    TMP DP  RH WIND       PRES   REMARKS
MONTEVIDEO     CLEAR     64  63  94 CALM      29.99R FOG
GRANITE FALLS  CLOUDY    66  66  98 NW3       30.00R FOG
CANBY          PTCLDY    65  64  96 CALM      30.00R FOG
MARSHALL       CLOUDY    69  68  96 CALM      29.98S FOG
REDWOOD FALLS  CLEAR     67  65  93 NW5       29.97R FOG
OLIVIA         CLEAR     64  63  94 NW3       29.97R FOG
PIPESTONE      CLOUDY    70  68  94 N6        29.99R
WINDOM         MOCLDY    68  66  94 N8        29.98R
WORTHINGTON    CLOUDY    68  67  96 N3        29.99R
JACKSON        CLOUDY    68  66  94 CALM      29.98R
TRACY          CLOUDY    69  69 100 CALM      30.00R FOG
SLAYTON        HVY RAIN  67  65  94 N9        29.98F
$$
MNZ065>067-074>077-082>085-091>093-201100-
   South Central Minnesota

CITY           SKY/WX    TMP DP  RH WIND       PRES   REMARKS
MANKATO        CLOUDY    68  67  96 N5        29.96R
NEW ULM        CLOUDY    66  64  94 NW3       29.96R
ST JAMES       CLOUDY    66  66 100 W5        29.97R FOG
FAIRMONT       CLOUDY    68  67  96 N6        29.95S
GLENCOE        CLOUDY    66  66 100 CALM      29.96R FOG
FARIBAULT      CLOUDY    68  66  94 CALM      29.95R FOG
OWATONNA       PTCLDY    68  66  94 CALM      29.95R FOG
WASECA           N/A     64  63  94 CALM      29.96R FOG
ALBERT LEA     CLOUDY    72  70  94 CALM      29.95R FOG
$$
MNZ078>079-086>088-094>096-201100-
   Southeast Minnesota

CITY           SKY/WX    TMP DP  RH WIND       PRES   REMARKS
ROCHESTER      CLOUDY    69  69 100 SE10      29.96R
RED WING       PTCLDY    70  66  88 E3        29.93R FOG
STANTON        MOCLDY    68  67  94 CALM      29.94R FOG
DODGE CENTER   CLOUDY    68  66  94 E5        29.96R FOG
WINONA         CLOUDY    73  73 100 SE5       29.95R
AUSTIN         CLOUDY    72  70  94 E7        29.95R
PRESTON        CLOUDY    68  66  93 SE13      29.98S
$$
ABBREVIATIONS USED IN REMARKS
   TC - TEMPERATURES IN CELSIUS
  WCI - WIND CHILL INDEX
   HX - HEAT INDEX
  VSB - VISIBILITY
$$




USA.gov is the U.S. government's official web portal to all federal, state and local government web resources and services.